Regional Weather Roundup
Issued by NWS

Home | Current Version | Previous Version | Graphics & Text | Print | Product List | Glossary On
Versions: 1 2 3 4 5 6 7 8 9 10 11 12 13 14 15 16 17 18 19 20 21 22 23 24 25 26 27 28 29 30 31 32 33 34 35 36 37 38 39 40 41 42 43 44 45 46 47 48 49 50
000
ASUS45 KCYS 230410
RWRWY

WYOMING REGIONAL WEATHER ROUNDUP
NATIONAL WEATHER SERVICE CHEYENNE WY
1000 PM MDT FRI SEP 22 2017

NOTE:  "FAIR" INDICATES FEW OR NO CLOUDS BELOW 12,000 FEET
WITH NO SIGNIFICANT WEATHER AND/OR OBSTRUCTIONS TO VISIBILITY.

WYZ001-230500-
YELLOWSTONE NATIONAL PARK

CITY           SKY/WX    TMP DP  RH WIND       PRES   REMARKS
LK YELLOWSTONE NOT AVBL
W YELLOWSTONE  NOT AVBL

$$
WYZ002>013-054>058-071-098>099-230500-
NORTHERN WYOMING

CITY           SKY/WX    TMP DP  RH WIND       PRES   REMARKS
JACKSON        CLOUDY    39  33  79 NE3       29.99R
CODY           LGT RAIN  35  33  92 CALM      30.05R
GREYBULL       LGT RAIN  42  41  96 W7        30.01R
WORLAND        LGT RAIN  42  42 100 N6        30.02R
SHERIDAN       RAIN      42  39  89 NE3       30.06R
BUFFALO        LGT RAIN  40  37  89 N6        30.05R
GILLETTE       CLOUDY    44  35  70 NE13      30.01R
HULETT         CLOUDY    41  37  87 NE7       30.02R
NEWCASTLE      FAIR      46  46 100 CALM      29.93F

$$
WYZ014>020-022>026-101>103-230500-
CENTRAL WYOMING

CITY           SKY/WX    TMP DP  RH WIND       PRES   REMARKS
BIG PINEY      CLOUDY    35  34  96 E16       30.00R WCI  25
PINEDALE       LGT SNOW  32  32 100 E9        30.03F WCI  24
DUBOIS         CLOUDY    34  32  93 CALM      29.99R
LANDER           N/A    N/A N/A N/A MISG      29.97R
RIVERTON       CLOUDY    42  40  92 NW5       29.99R
CASPER         FAIR      42  40  92 N12       29.97S
DOUGLAS        FAIR      42  42 100 CALM      29.97R

$$
WYZ021-027>030-104>119-230500-
SOUTHERN WYOMING

CITY           SKY/WX    TMP DP  RH WIND       PRES   REMARKS
EVANSTON       MOCLDY    36  34  92 CALM      30.00S
KEMMERER         N/A     36  34  93 CALM      30.02R
FORT BRIDGER   CLOUDY    37  37 100 W7        30.03S WCI  32
ROCK SPRINGS   RAIN      35  34  96 NW13      30.02S WCI  26
DIXON          CLOUDY    50  39  66 NW17G25   29.96R
RAWLINS        FAIR      44  40  85 N7        29.94R
SARATOGA       MOCLDY    50  41  71 S14G20    29.94R
LARAMIE        MOCLDY    45  39  79 SE7       29.99F
CHEYENNE       FAIR      48  36  63 N14G21    29.97F
TORRINGTON     FAIR      51  39  63 N9        29.94R
PINE BLUFFS    FAIR      52  36  54 N16G23    29.95R

$$



USA.gov is the U.S. government's official web portal to all federal, state and local government web resources and services.